| time (UTC) | temp F | wind direction | speed MPH | gust MPH | rain 1hr in | rain 24hr in | rain mn in | humidity % | barometer mb |
| 20260901201529 | 73 | 263 | 11.0 | 21.0 | 0.00 | 0.00 | 0.00 | 55 | 1007.0 |
| 20260901200033 | 72 | 258 | 12.0 | 23.0 | 0.00 | 0.00 | 0.00 | 56 | 1007.1 |
| 20260901194604 | 72 | 260 | 13.0 | 23.0 | 0.00 | 0.00 | 0.00 | 56 | 1007.4 |
| 20260901193030 | 72 | 254 | 11.0 | 20.0 | 0.00 | 0.00 | 0.00 | 57 | 1007.6 |
| 20260901191648 | 71 | 262 | 12.0 | 23.0 | 0.00 | 0.00 | 0.00 | 57 | 1007.8 |
| 20260901190106 | 71 | 263 | 10.0 | 24.0 | 0.00 | 0.00 | 0.00 | 58 | 1008.0 |
| 20260901184533 | 71 | 264 | 9.0 | 15.0 | 0.00 | 0.00 | 0.00 | 59 | 1008.1 |
| 20260901183106 | 70 | 258 | 8.0 | 13.0 | 0.00 | 0.00 | 0.00 | 60 | 1008.2 |
| 20260901181530 | 69 | 258 | 10.0 | 21.0 | 0.00 | 0.00 | 0.00 | 61 | 1008.3 |
| 20260901180030 | 68 | 256 | 9.0 | 18.0 | 0.00 | 0.00 | 0.00 | 63 | 1008.5 |
| 20260901174607 | 68 | 257 | 9.0 | 17.0 | 0.00 | 0.00 | 0.00 | 64 | 1008.4 |
| 20260901173032 | 67 | 264 | 7.0 | 14.0 | 0.00 | 0.00 | 0.00 | 67 | 1008.5 |
| 20260901171530 | 64 | 258 | 8.0 | 15.0 | 0.00 | 0.00 | 0.00 | 71 | 1008.5 |
| 20260901170032 | 63 | 254 | 7.0 | 15.0 | 0.00 | 0.00 | 0.00 | 73 | 1008.4 |
| 20260901164530 | 62 | 256 | 6.0 | 15.0 | 0.00 | 0.00 | 0.00 | 75 | 1008.5 |
| 20260901161605 | 60 | 262 | 6.0 | 14.0 | 0.00 | 0.00 | 0.00 | 78 | 1008.5 |
| 20260901160106 | 60 | 269 | 5.0 | 9.0 | 0.00 | 0.00 | 0.00 | 79 | 1008.4 |
| 20260901154535 | 59 | 279 | 5.0 | 11.0 | 0.00 | 0.00 | 0.00 | 81 | 1008.3 |
| 20260901153041 | 57 | 284 | 4.0 | 8.0 | 0.00 | 0.00 | 0.00 | 82 | 1008.4 |
| 20260901150032 | 57 | 287 | 4.0 | 9.0 | 0.00 | 0.00 | 0.00 | 83 | 1008.2 |
| 20260901144645 | 57 | 296 | 3.0 | 7.0 | 0.00 | 0.00 | 0.00 | 83 | 1008.2 |
| 20260901143031 | 57 | 291 | 3.0 | 8.0 | 0.00 | 0.00 | 0.00 | 83 | 1008.1 |
| 20260901141530 | 57 | 292 | 4.0 | 9.0 | 0.00 | 0.00 | 0.00 | 83 | 1008.0 |
| 20260901140031 | 56 | 296 | 3.0 | 6.0 | 0.00 | 0.00 | 0.00 | 83 | 1007.7 |
| 20260901134531 | 56 | 315 | 3.0 | 8.0 | 0.00 | 0.00 | 0.00 | 83 | 1007.6 |
| 20260901130029 | 56 | 322 | 3.0 | 7.0 | 0.00 | 0.00 | 0.00 | 83 | 1007.2 |
| 20260901124531 | 56 | 336 | 2.0 | 7.0 | 0.00 | 0.00 | 0.00 | 81 | 1007.1 |
| 20260901123031 | 56 | 13 | 3.0 | 5.0 | 0.00 | 0.00 | 0.00 | 81 | 1007.1 |
| 20260901121533 | 56 | 24 | 3.0 | 6.0 | 0.00 | 0.00 | 0.00 | 80 | 1007.1 |
| 20260901120030 | 56 | 25 | 3.0 | 5.0 | 0.00 | 0.00 | 0.00 | 79 | 1007.0 |
| 20260901114531 | 57 | 26 | 3.0 | 6.0 | 0.00 | 0.00 | 0.00 | 78 | 1007.1 |
| 20260901113030 | 57 | 19 | 4.0 | 7.0 | 0.00 | 0.00 | 0.00 | 77 | 1007.0 |
| 20260901111531 | 57 | 24 | 5.0 | 7.0 | 0.00 | 0.00 | 0.00 | 76 | 1006.9 |
| 20260901110042 | 58 | 25 | 4.0 | 7.0 | 0.00 | 0.00 | 0.00 | 75 | 1006.9 |
| 20260901110032 | 58 | 23 | 5.0 | 8.0 | 0.00 | 0.00 | 0.00 | 74 | 1006.9 |
| 20260901103031 | 57 | 22 | 5.0 | 7.0 | 0.00 | 0.00 | 0.00 | 73 | 1006.8 |
| 20260901101530 | 57 | 18 | 3.0 | 7.0 | 0.00 | 0.00 | 0.00 | 72 | 1006.9 |
| 20260901100030 | 58 | 16 | 4.0 | 6.0 | 0.00 | 0.00 | 0.00 | 70 | 1006.8 |
| 20260901094531 | 58 | 12 | 4.0 | 6.0 | 0.00 | 0.00 | 0.00 | 69 | 1006.8 |
| 20260901093030 | 58 | 9 | 3.0 | 7.0 | 0.00 | 0.00 | 0.00 | 66 | 1006.8 |
| 20260901091531 | 57 | 10 | 4.0 | 7.0 | 0.00 | 0.00 | 0.00 | 63 | 1006.6 |
| 20260901090031 | 57 | 312 | 1.0 | 5.0 | 0.00 | 0.00 | 0.00 | 63 | 1006.6 |
| 20260901084540 | 57 | 270 | 0.0 | 1.0 | 0.00 | 0.00 | 0.00 | 64 | 1006.6 |
| 20260901083030 | 57 | 270 | 0.0 | 0.0 | 0.00 | 0.00 | 0.00 | 63 | 1006.8 |
| 20260901081532 | 57 | 270 | 0.0 | 1.0 | 0.00 | 0.00 | 0.00 | 62 | 1006.8 |
| 20260901080029 | 58 | 265 | 1.0 | 4.0 | 0.00 | 0.00 | 0.00 | 60 | 1006.6 |
| 20260901071529 | 60 | 21 | 4.0 | 6.0 | 0.00 | 0.00 | 0.00 | 54 | 1006.3 |
| 20260901070032 | 60 | 22 | 4.0 | 6.0 | 0.00 | 0.00 | 0.00 | 53 | 1006.2 |
| 20260901064532 | 61 | 9 | 4.0 | 6.0 | 0.00 | 0.00 | 0.00 | 50 | 1006.3 |
| 20260901061530 | 63 | 155 | 1.0 | 3.0 | 0.00 | 0.00 | 0.00 | 45 | 1006.4 |
| 20260901060032 | 64 | 157 | 1.0 | 3.0 | 0.00 | 0.00 | 0.00 | 44 | 1006.4 |
| 20260901054531 | 64 | 30 | 0.0 | 3.0 | 0.00 | 0.00 | 0.00 | 43 | 1006.4 |
| 20260901053031 | 65 | 64 | 1.0 | 3.0 | 0.00 | 0.00 | 0.00 | 41 | 1006.4 |
| 20260901044530 | 67 | 170 | 2.0 | 3.0 | 0.00 | 0.00 | 0.00 | 40 | 1006.2 |
| 20260901043029 | 68 | 151 | 2.0 | 4.0 | 0.00 | 0.00 | 0.00 | 41 | 1006.1 |
| 20260901040030 | 67 | 23 | 2.0 | 4.0 | 0.00 | 0.00 | 0.00 | 42 | 1005.8 |
| 20260901034532 | 67 | 354 | 4.0 | 5.0 | 0.00 | 0.00 | 0.00 | 41 | 1005.6 |
| 20260901033033 | 69 | 4 | 3.0 | 6.0 | 0.00 | 0.00 | 0.00 | 37 | 1005.3 |
| 20260901031531 | 71 | 134 | 1.0 | 3.0 | 0.00 | 0.00 | 0.00 | 35 | 1005.2 |
| 20260901030029 | 73 | 176 | 2.0 | 4.0 | 0.00 | 0.00 | 0.00 | 33 | 1005.0 |
| 20260901024532 | 74 | 120 | 0.0 | 3.0 | 0.00 | 0.00 | 0.00 | 31 | 1004.9 |
| 20260901023030 | 75 | 112 | 1.0 | 3.0 | 0.00 | 0.00 | 0.00 | 30 | 1004.7 |
| 20260901021529 | 76 | 111 | 1.0 | 3.0 | 0.00 | 0.00 | 0.00 | 31 | 1004.7 |
| 20260901020116 | 76 | 95 | 1.0 | 4.0 | 0.00 | 0.00 | 0.00 | 32 | 1004.8 |
| 20260901014607 | 77 | 341 | 1.0 | 3.0 | 0.00 | 0.00 | 0.00 | 32 | 1004.7 |
| 20260901013029 | 81 | 273 | 3.0 | 4.0 | 0.00 | 0.00 | 0.00 | 32 | 1004.8 |
| 20260901011529 | 83 | 207 | 2.0 | 4.0 | 0.00 | 0.00 | 0.00 | 26 | 1004.8 |
| 20260901010031 | 84 | 51 | 2.0 | 7.0 | 0.00 | 0.00 | 0.00 | 23 | 1004.9 |
| 20260901003108 | 84 | 34 | 5.0 | 10.0 | 0.00 | 0.00 | 0.00 | 24 | 1005.1 |
| 20260901001528 | 84 | 39 | 4.0 | 8.0 | 0.00 | 0.00 | 0.00 | 25 | 1005.3 |
| 20260901000111 | 84 | 37 | 7.0 | 12.0 | 0.00 | 0.00 | 0.00 | 25 | 1005.4 |
| 20260831234530 | 85 | 33 | 7.0 | 12.0 | 0.00 | 0.00 | 0.00 | 25 | 1005.5 |
| 20260831233032 | 86 | 39 | 7.0 | 12.0 | 0.00 | 0.00 | 0.00 | 24 | 1005.6 |
| 20260831231534 | 87 | 43 | 6.0 | 14.0 | 0.00 | 0.00 | 0.00 | 24 | 1005.9 |
| 20260831224533 | 87 | 42 | 4.0 | 13.0 | 0.00 | 0.00 | 0.00 | 25 | 1006.4 |
| 20260831223033 | 87 | 44 | 5.0 | 13.0 | 0.00 | 0.00 | 0.00 | 25 | 1006.5 |
| 20260831221532 | 86 | 37 | 6.0 | 13.0 | 0.00 | 0.00 | 0.00 | 26 | 1006.7 |
| 20260831214605 | 87 | 31 | 4.0 | 16.0 | 0.00 | 0.00 | 0.00 | 28 | 1007.2 |
| 20260831213105 | 86 | 35 | 3.0 | 11.0 | 0.00 | 0.00 | 0.00 | 30 | 1007.4 |
| 20260831211532 | 85 | 41 | 4.0 | 9.0 | 0.00 | 0.00 | 0.00 | 31 | 1007.6 |
| 20260831210029 | 83 | 38 | 6.0 | 17.0 | 0.00 | 0.00 | 0.00 | 31 | 1007.9 |
| 20260831204530 | 84 | 40 | 9.0 | 22.0 | 0.00 | 0.00 | 0.00 | 31 | 1008.0 |